Location: Praha
(50.0830°N, 14.4670°E)
Time: 04:28:57
(UTC+01:00)

ISS - Pass Details

Date: 20 January 2021
Orbit: 418 x 421 km, 51.6° (Epoch: 26 January)

Event Time Altitude Azimuth Distance (km) Brightness Sun altitude
Rises 18:39:51 0° 222° (SW) 2,361 0.9 -19.4°
Reaches altitude 10° 18:42:04 10° 212° (SSW) 1,500 -0.4 -19.7°
Enters shadow 18:44:30 29° 171° (S) 794 -2.4 -20.1°
